Date String (YYYY-MM-DD hh:mm:ss) UTC,Instrument flags,Ambient pressure (hPa),Sample flow (lpm),Bypass flow (lpm),Sample temperature (°C),Ambient temperature (°C),ASC tube jacket temperature (°C),LED temperature (°C),Box temperature (°C),Sample RH (%),Span deviation,Mass concentration (μg/m³),Mass concentration (μg/m³),Mass concentration (μg/m³)
DateTimeUTC,F1_M11,P_M11,Q1_M11,Q2_M11,T1_M11,T2_M11,T3_M11,T4_M11,T5_M11,U1_M11,ZSPAN_M11,X2_M11,X0_M11,X1_M11
2022-05-23 23:00:00,,0824.4,4.99,0.00,30.0,29.0,00.0,39.0,31.8,13.3,0000.0,0001.45,0003.76,0001.09
2022-05-23 23:01:00,,0824.4,5.00,0.00,30.0,29.0,00.0,39.0,31.8,13.4,0000.0,0001.46,0004.06,0001.11
2022-05-23 23:02:00,,0824.4,5.02,0.00,30.0,29.0,00.0,39.0,31.8,13.3,0000.0,0001.49,0003.84,0001.12
2022-05-23 23:03:00,,0824.4,5.00,0.00,30.0,29.0,00.0,39.0,31.8,13.1,0000.0,0001.51,0003.91,0001.13
2022-05-23 23:04:00,,0824.5,5.00,0.00,30.0,29.0,00.0,39.0,31.8,13.0,0000.0,0001.54,0004.00,0001.16
2022-05-23 23:05:00,,0824.4,5.01,0.00,30.0,29.0,00.0,39.0,31.8,12.9,0000.0,0001.50,0003.63,0001.18
2022-05-23 23:06:00,,0824.5,4.99,0.00,30.0,28.9,00.0,39.0,31.7,12.7,0000.0,0001.51,0003.49,0001.19
2022-05-23 23:07:00,,0824.4,5.01,0.00,30.0,28.9,00.0,39.0,31.8,12.7,0000.0,0001.51,0003.46,0001.20
2022-05-23 23:08:00,,0824.4,5.00,0.00,30.0,28.9,00.0,39.0,31.8,13.0,0000.0,0001.55,0003.71,0001.21
2022-05-23 23:09:00,,0824.5,5.01,0.00,30.0,29.0,00.0,39.0,31.8,13.0,0000.0,0001.59,0003.62,0001.21
2022-05-23 23:10:00,,0824.4,4.99,0.00,30.0,29.0,00.0,39.0,31.7,13.2,0000.0,0001.64,0003.71,0001.22
2022-05-23 23:11:00,,0824.5,5.00,0.00,30.0,29.0,00.0,39.0,31.8,13.2,0000.0,0001.63,0003.49,0001.22
2022-05-23 23:12:00,,0824.5,5.00,0.00,30.0,29.0,00.0,39.0,31.8,12.4,0000.0,0001.63,0003.05,0001.22
2022-05-23 23:13:00,,0824.6,5.01,0.00,30.0,29.0,00.0,39.0,31.8,12.6,0000.0,0001.66,0003.17,0001.21
2022-05-23 23:14:00,,0824.6,5.00,0.00,30.0,29.0,00.0,39.0,31.8,12.4,0000.0,0001.70,0003.33,0001.21
2022-05-23 23:15:00,,0824.7,4.99,0.00,30.0,29.0,00.0,39.0,31.8,12.7,0000.0,0001.65,0003.15,0001.19
2022-05-23 23:16:00,,0824.6,5.01,0.00,30.0,29.0,00.0,39.0,31.8,12.6,0000.0,0001.65,0003.22,0001.18
2022-05-23 23:17:00,,0824.6,5.00,0.00,30.0,29.0,00.0,39.0,31.8,12.6,0000.0,0001.64,0003.23,0001.17
2022-05-23 23:18:00,,0824.6,4.99,0.00,30.0,29.0,00.0,39.0,31.7,12.6,0000.0,0001.66,0003.23,0001.16
2022-05-23 23:19:00,,0824.6,5.02,0.00,30.0,29.0,00.0,39.0,31.8,12.6,0000.0,0001.63,0002.98,0001.15
2022-05-23 23:20:00,,0824.6,5.00,0.00,30.0,29.0,00.0,39.0,31.8,13.2,0000.0,0001.63,0002.94,0001.15
2022-05-23 23:21:00,,0824.6,5.00,0.00,30.0,29.0,00.0,39.0,31.8,13.7,0000.0,0001.72,0003.16,0001.20
2022-05-23 23:22:00,,0824.6,5.00,0.00,30.0,29.0,00.0,39.0,31.8,13.3,0000.0,0001.81,0003.16,0001.26
2022-05-23 23:23:00,,0824.6,5.00,0.00,30.0,29.0,00.0,39.0,31.8,13.3,0000.0,0001.90,0003.33,0001.32
2022-05-23 23:24:00,,0824.7,5.00,0.00,30.0,29.0,00.0,39.0,31.8,13.6,0000.0,0001.96,0003.76,0001.39
2022-05-23 23:25:00,,0824.7,5.02,0.00,30.0,29.0,00.0,39.0,31.8,13.4,0000.0,0002.00,0004.06,0001.47
2022-05-23 23:26:00,,0824.6,5.00,0.00,30.0,29.0,00.0,39.0,31.7,13.3,0000.0,0002.07,0004.28,0001.53
2022-05-23 23:27:00,,0824.7,5.00,0.00,30.0,29.0,00.0,39.0,31.7,13.6,0000.0,0002.18,0004.44,0001.60
2022-05-23 23:28:00,,0824.7,4.99,0.00,30.0,29.0,00.0,39.0,31.7,13.9,0000.0,0002.29,0004.82,0001.68
2022-05-23 23:29:00,,0824.7,5.00,0.00,30.0,29.0,00.0,39.0,31.7,13.6,0000.0,0002.41,0005.70,0001.78
2022-05-23 23:30:00,,0824.6,5.00,0.00,30.0,29.0,00.0,39.0,31.7,13.9,0000.0,0002.53,0006.01,0001.88
2022-05-23 23:31:00,,0824.7,5.01,0.00,30.0,29.0,00.0,39.0,31.8,14.1,0000.0,0002.60,0006.16,0001.94
2022-05-23 23:32:00,,0824.7,5.00,0.00,30.0,29.0,00.0,39.0,31.8,14.3,0000.0,0002.62,0006.80,0001.98
2022-05-23 23:33:00,,0824.7,4.99,0.00,30.0,29.0,00.0,39.0,31.8,14.1,0000.0,0002.64,0007.03,0002.01
2022-05-23 23:34:00,,0824.7,5.00,0.00,30.0,29.0,00.0,39.0,31.7,14.3,0000.0,0002.68,0007.07,0002.04
2022-05-23 23:35:00,,0824.8,5.01,0.00,30.0,29.0,00.0,39.0,31.8,14.4,0000.0,0002.70,0006.71,0002.06
2022-05-23 23:36:00,,0824.8,4.99,0.00,30.0,29.0,00.0,39.0,31.7,14.7,0000.0,0002.76,0006.52,0002.07
2022-05-23 23:37:00,,0824.8,4.99,0.00,30.0,29.0,00.0,39.0,31.7,14.1,0000.0,0002.84,0006.53,0002.09
2022-05-23 23:38:00,,0824.9,5.01,0.00,30.0,29.0,00.0,39.0,31.7,14.0,0000.0,0002.89,0006.71,0002.11
2022-05-23 23:39:00,,0824.8,5.00,0.00,30.0,29.0,00.0,39.0,31.7,14.1,0000.0,0002.91,0006.83,0002.12
2022-05-23 23:40:00,,0824.8,5.00,0.00,30.0,29.0,00.0,39.0,31.7,14.2,0000.0,0002.93,0006.19,0002.12
2022-05-23 23:41:00,,0824.8,5.00,0.00,30.0,29.0,00.0,39.0,31.7,14.2,0000.0,0002.95,0006.33,0002.11
2022-05-23 23:42:00,,0824.9,5.01,0.00,30.0,29.0,00.0,39.0,31.8,14.7,0000.0,0002.99,0006.89,0002.12
2022-05-23 23:43:00,,0824.9,4.99,0.00,30.0,29.0,00.0,39.0,31.8,14.4,0000.0,0003.03,0007.81,0002.14
2022-05-23 23:44:00,,0824.9,5.00,0.00,30.0,29.0,00.0,39.0,31.8,14.7,0000.0,0003.06,0007.90,0002.16
2022-05-23 23:45:00,,0824.9,5.00,0.00,30.0,29.0,00.0,39.0,31.7,14.6,0000.0,0003.09,0007.96,0002.17
2022-05-23 23:46:00,,0824.9,5.00,0.00,30.0,29.0,00.0,39.0,31.7,14.4,0000.0,0003.10,0007.94,0002.19
2022-05-23 23:47:00,,0824.9,5.00,0.00,30.0,29.0,00.0,39.0,31.8,14.1,0000.0,0003.06,0007.84,0002.19
2022-05-23 23:48:00,,0824.9,5.01,0.00,30.0,29.0,00.0,39.0,31.8,14.2,0000.0,0003.04,0007.77,0002.21
2022-05-23 23:49:00,,0824.9,5.00,0.00,30.0,29.0,00.0,39.0,31.8,13.8,0000.0,0003.09,0007.79,0002.22
2022-05-23 23:50:00,,0824.9,5.00,0.00,30.0,29.0,00.0,39.0,31.7,13.7,0000.0,0003.08,0007.77,0002.22
2022-05-23 23:51:00,,0824.9,5.02,0.00,30.0,29.0,00.0,39.0,31.7,13.6,0000.0,0003.12,0007.82,0002.21
2022-05-23 23:52:00,,0824.9,5.00,0.00,30.0,29.0,00.0,39.0,31.8,13.8,0000.0,0003.07,0007.66,0002.21
2022-05-23 23:53:00,,0824.9,5.00,0.00,30.0,29.0,00.0,39.0,31.8,14.2,0000.0,0003.02,0007.32,0002.21
2022-05-23 23:54:00,,0824.9,5.00,0.00,30.0,29.0,00.0,39.0,31.7,14.1,0000.0,0002.98,0006.31,0002.20
2022-05-23 23:55:00,,0824.9,5.02,0.00,30.0,29.0,00.0,39.0,31.8,13.8,0000.0,0003.00,0005.29,0002.17
2022-05-23 23:56:00,,0824.9,5.00,0.00,30.0,29.0,00.0,39.0,31.8,13.8,0000.0,0002.98,0005.10,0002.17
2022-05-23 23:57:00,,0824.9,4.99,0.00,30.0,29.0,00.0,39.0,31.8,14.1,0000.0,0002.97,0005.02,0002.17
2022-05-23 23:58:00,,0825.0,5.01,0.00,30.0,29.0,00.0,39.0,31.7,14.2,0000.0,0002.99,0005.08,0002.18
2022-05-23 23:59:00,,0825.0,5.00,0.00,30.0,29.0,00.0,39.0,31.8,14.4,0000.0,0002.98,0005.26,0002.19
